CW2931 Weather Reports


Display with metric or nautical units.
time (UTC)temp
F
wind
direction
speed
MPH
gust
MPH
rain 1hr
in
rain 24hr
in
rain mn
in
humidity
%
barometer
mb
20260503024604 41 244 0.0 0.0 0.00 0.03 0.03 64 1016.2
20260503024105 42 245 0.0 0.0 0.00 0.03 0.03 63 1016.3
20260503023604 42 246 0.0 0.0 0.00 0.03 0.03 63 1016.3
20260503022105 43 248 0.0 0.0 0.00 0.03 0.03 61 1016.3
20260503021605 43 249 0.0 0.0 0.00 0.03 0.03 60 1016.3
20260503020604 44 249 0.0 0.0 0.00 0.03 0.03 59 1016.2
20260503020104 44 249 0.0 0.0 0.00 0.03 0.03 58 1016.2
20260503015604 44 248 0.0 0.0 0.00 0.03 0.03 58 1016.2
20260503015105 44 250 0.0 0.0 0.00 0.03 0.03 58 1016.2
20260503014604 44 249 0.0 0.0 0.00 0.03 0.03 57 1016.2
20260503013104 46 249 0.0 0.0 0.00 0.03 0.03 56 1016.1
20260503012605 46 248 0.0 0.0 0.00 0.03 0.03 54 1016.1
20260503012105 46 246 0.0 0.0 0.00 0.03 0.03 53 1016.1
20260503011604 47 242 0.0 0.0 0.00 0.03 0.03 53 1016.1
20260503011104 47 242 0.0 0.0 0.00 0.03 0.03 52 1016.1
20260503010605 48 238 0.0 0.0 0.00 0.03 0.03 52 1016.1
20260503010104 48 246 0.0 0.0 0.00 0.03 0.03 51 1016.1
20260503005104 48 236 0.0 0.0 0.00 0.03 0.03 49 1016.0
20260503004605 49 233 0.0 0.0 0.00 0.03 0.03 48 1016.0
20260503004104 49 255 0.0 0.0 0.00 0.03 0.03 47 1015.9
20260503003604 49 256 0.0 0.0 0.00 0.03 0.03 46 1015.8
20260503003104 49 256 0.0 0.0 0.00 0.03 0.03 46 1015.8
20260503001604 49 254 0.0 0.0 0.00 0.03 0.03 45 1015.8
20260503001105 49 254 0.0 0.0 0.00 0.03 0.03 45 1015.8
20260503000605 49 241 0.0 0.0 0.00 0.03 0.03 45 1015.7
20260503000104 49 0 0.0 0.0 0.00 0.03 0.03 45 1015.7
20260502235604 49 267 0.0 0.0 0.00 0.03 0.03 45 1015.8
20260502235105 49 254 0.0 0.0 0.00 0.03 0.03 45 1015.7
20260502234604 49 283 0.0 0.0 0.00 0.03 0.03 44 1015.7
20260502234104 49 344 0.0 0.0 0.00 0.03 0.03 45 1015.7
20260502233104 49 283 0.0 0.0 0.00 0.03 0.03 44 1015.8
20260502232604 49 278 0.0 0.0 0.00 0.03 0.03 45 1015.8
20260502231604 50 263 0.0 0.0 0.00 0.03 0.03 44 1015.8
20260502230604 50 282 0.0 0.0 0.00 0.03 0.03 43 1015.9
20260502230104 50 261 0.0 0.0 0.00 0.03 0.03 44 1015.9
20260502225604 50 265 0.0 0.0 0.00 0.03 0.03 43 1015.8
20260502225104 50 259 0.0 0.0 0.00 0.03 0.03 44 1015.8
20260502224605 50 299 0.0 0.0 0.00 0.03 0.03 43 1015.8
20260502224104 50 271 0.0 0.0 0.00 0.03 0.03 42 1015.8
20260502223603 50 271 0.0 0.0 0.00 0.03 0.03 42 1015.9
20260502223104 50 262 0.0 0.0 0.00 0.03 0.03 42 1015.9
20260502222604 50 316 0.0 0.0 0.00 0.03 0.03 42 1015.9
20260502222104 51 298 0.0 0.0 0.00 0.03 0.03 42 1016.0
20260502221604 51 249 0.0 0.0 0.00 0.03 0.03 42 1016.0
20260502221104 51 266 0.0 0.0 0.00 0.03 0.03 42 1015.9
20260502220604 51 299 0.0 0.0 0.00 0.03 0.03 44 1015.9
20260502220104 51 248 0.0 0.0 0.00 0.03 0.03 43 1015.9
20260502215604 50 317 0.0 0.0 0.00 0.03 0.03 44 1015.9
20260502215104 50 321 0.0 0.0 0.00 0.03 0.03 44 1016.0
20260502214104 50 286 0.0 0.0 0.00 0.03 0.03 42 1016.0
20260502213604 50 277 0.0 0.0 0.00 0.03 0.03 42 1016.0
20260502213104 50 259 0.0 0.0 0.00 0.03 0.03 42 1016.0
20260502212604 50 283 0.0 0.0 0.00 0.03 0.03 43 1016.0
20260502212105 50 358 0.0 0.0 0.00 0.03 0.03 43 1016.0
20260502210603 50 271 0.0 0.0 0.00 0.03 0.03 42 1016.1
20260502210104 50 278 0.0 0.0 0.00 0.03 0.03 45 1016.2
20260502205604 50 312 0.0 0.0 0.00 0.03 0.03 43 1016.1
20260502205104 50 13 0.0 0.0 0.00 0.03 0.03 42 1016.1
20260502204104 50 270 0.0 0.0 0.00 0.03 0.03 42 1016.1
20260502203604 50 288 0.0 0.0 0.00 0.03 0.03 42 1016.2
20260502203104 50 287 0.0 0.0 0.00 0.03 0.03 41 1016.2
20260502202604 50 254 0.0 0.0 0.00 0.03 0.03 40 1016.2
20260502202104 50 305 0.0 0.0 0.00 0.03 0.03 41 1016.2
20260502201604 50 281 0.0 0.0 0.00 0.03 0.03 41 1016.3
20260502201104 50 261 0.0 0.0 0.00 0.03 0.03 43 1016.3
20260502200104 50 268 0.0 0.0 0.00 0.03 0.03 42 1016.4
20260502195604 50 314 0.0 0.0 0.00 0.03 0.03 43 1016.5
20260502195104 50 331 0.0 0.0 0.00 0.03 0.03 42 1016.6
20260502194604 50 340 0.0 0.0 0.00 0.03 0.03 41 1016.6
20260502194104 50 350 0.0 0.0 0.00 0.03 0.03 44 1016.7
20260502193104 50 2 0.0 0.0 0.00 0.03 0.03 42 1016.7
20260502192603 50 329 0.0 0.0 0.00 0.03 0.03 42 1016.8
20260502192104 50 328 0.0 0.0 0.00 0.03 0.03 42 1016.9
20260502191604 50 10 0.0 0.0 0.00 0.03 0.03 42 1016.9
20260502191104 50 344 0.0 0.0 0.00 0.03 0.03 42 1017.0
20260502190604 50 323 0.0 0.0 0.00 0.03 0.03 44 1017.1
20260502185604 50 257 0.0 0.0 0.00 0.03 0.03 44 1017.2
20260502185104 50 280 0.0 0.0 0.00 0.03 0.03 44 1017.2
20260502184604 50 232 0.0 0.0 0.00 0.03 0.03 43 1017.2
20260502184104 50 274 0.0 0.0 0.00 0.03 0.03 43 1017.3
20260502183604 50 292 0.0 0.0 0.00 0.03 0.03 43 1017.3
20260502182604 49 326 0.0 0.0 0.00 0.03 0.03 43 1017.3
20260502182103 49 314 0.0 0.0 0.00 0.03 0.03 43 1017.3
20260502181604 49 273 0.0 0.0 0.00 0.03 0.03 43 1017.3
20260502181104 49 275 0.0 0.0 0.00 0.03 0.03 45 1017.3
20260502180604 49 317 0.0 0.0 0.00 0.03 0.03 45 1017.3
20260502180105 49 294 0.0 0.0 0.00 0.03 0.03 44 1017.4
20260502170104 49 342 0.0 0.0 0.00 0.03 0.03 45 1017.7
20260502164103 48 259 0.0 0.0 0.00 0.03 0.03 48 1017.7
20260502163604 48 296 0.0 0.0 0.00 0.03 0.03 49 1017.8
20260502163104 48 253 0.0 0.0 0.00 0.03 0.03 49 1017.8
20260502162604 48 280 0.0 0.0 0.00 0.03 0.03 50 1017.8
20260502162104 48 270 0.0 0.0 0.00 0.03 0.03 51 1017.8
20260502160604 47 1 0.0 0.0 0.00 0.03 0.03 56 1017.9
20260502152103 44 3 0.0 0.0 0.00 0.03 0.03 62 1017.8
20260502151604 44 328 0.0 0.0 0.00 0.03 0.03 62 1017.8
20260502151104 44 298 0.0 0.0 0.00 0.03 0.03 63 1017.8
20260502150604 44 351 0.0 0.0 0.00 0.03 0.03 64 1017.8
20260502150104 44 313 0.0 0.0 0.00 0.03 0.03 65 1017.7
20260502140104 45 39 0.0 0.0 0.00 0.04 0.03 69 1017.6
20260502130604 43 324 0.0 0.0 0.00 0.04 0.03 85 1017.9
20260502130104 43 329 0.0 0.0 0.00 0.04 0.03 85 1017.9
20260502123604 41 301 0.0 0.0 0.00 0.04 0.03 87 1017.8
20260502123104 41 310 0.0 0.0 0.00 0.04 0.03 87 1017.8
20260502122604 40 337 0.0 0.0 0.00 0.04 0.03 87 1017.8
20260502122103 40 337 0.0 0.0 0.00 0.04 0.03 87 1017.8
20260502121603 40 310 0.0 0.0 0.00 0.04 0.03 87 1017.8
20260502121104 40 327 0.0 0.0 0.00 0.04 0.03 87 1017.8
20260502120104 39 0 0.0 0.0 0.00 0.04 0.03 87 1017.7
20260502115604 39 0 0.0 0.0 0.00 0.04 0.03 87 1017.6
20260502115104 38 0 0.0 0.0 0.00 0.04 0.03 86 1017.7
20260502114604 38 0 0.0 0.0 0.00 0.04 0.03 86 1017.7
20260502114103 38 0 0.0 0.0 0.00 0.04 0.03 86 1017.6
20260502113104 38 0 0.0 0.0 0.00 0.04 0.03 86 1017.6
20260502112603 38 0 0.0 0.0 0.00 0.04 0.03 86 1017.5
20260502112104 38 0 0.0 0.0 0.00 0.04 0.03 86 1017.4
20260502111603 38 0 0.0 0.0 0.00 0.04 0.03 85 1017.3
20260502111104 38 0 0.0 0.0 0.00 0.04 0.03 85 1017.3
20260502110604 38 0 0.0 0.0 0.00 0.04 0.03 85 1017.3
20260502110104 38 0 0.0 0.0 0.00 0.04 0.03 85 1017.3
20260502105604 38 0 0.0 0.0 0.00 0.04 0.03 85 1017.3
20260502105103 38 0 0.0 0.0 0.00 0.04 0.03 85 1017.3
20260502104104 38 0 0.0 0.0 0.00 0.04 0.03 85 1017.2
20260502103604 38 0 0.0 0.0 0.00 0.04 0.03 85 1017.2
20260502103103 38 0 0.0 0.0 0.00 0.04 0.03 85 1017.2
20260502102604 39 0 0.0 0.0 0.00 0.04 0.03 85 1017.3
20260502102104 39 0 0.0 0.0 0.00 0.04 0.03 85 1017.3
20260502101604 39 0 0.0 0.0 0.00 0.04 0.03 85 1017.3
20260502101104 39 0 0.0 0.0 0.00 0.04 0.03 85 1017.3
20260502100604 39 0 0.0 0.0 0.00 0.04 0.03 85 1017.3
20260502091104 39 0 0.0 0.0 0.01 0.04 0.03 85 1016.9
20260502090604 39 0 0.0 0.0 0.01 0.04 0.03 84 1016.8
20260502090103 39 0 0.0 0.0 0.01 0.04 0.03 84 1016.8
20260502080104 39 0 0.0 0.0 0.00 0.03 0.02 83 1016.7
20260502065606 39 0 0.0 0.0 0.01 0.04 0.02 82 1016.6
20260502065105 39 0 0.0 0.0 0.01 0.04 0.02 82 1016.6
20260502064605 39 0 0.0 0.0 0.01 0.04 0.02 82 1016.7
20260502064106 39 0 0.0 0.0 0.01 0.04 0.02 82 1016.7
20260502063605 39 0 0.0 0.0 0.01 0.04 0.02 82 1016.7
20260502063105 39 0 0.0 0.0 0.02 0.04 0.02 81 1016.7
20260502062606 39 0 0.0 0.0 0.02 0.04 0.02 81 1016.7
20260502062106 40 0 0.0 0.0 0.02 0.04 0.02 81 1016.8
20260502061605 40 0 0.0 0.0 0.01 0.03 0.01 81 1016.8
20260502061105 40 0 0.0 0.0 0.01 0.03 0.01 81 1016.9
20260502060605 40 0 0.0 0.0 0.01 0.03 0.01 81 1017.0
20260502060106 40 0 0.0 0.0 0.01 0.03 0.01 81 1017.0
20260502055606 40 0 0.0 0.0 0.01 0.03 0.01 80 1017.1
20260502055105 40 0 0.0 0.0 0.01 0.03 0.01 80 1017.2
20260502054606 41 358 0.0 0.0 0.01 0.03 0.01 80 1017.2
20260502054106 41 359 0.0 0.0 0.01 0.03 0.01 80 1017.2
20260502053605 41 334 0.0 0.0 0.01 0.03 0.01 80 1017.2
20260502053106 41 40 0.0 0.0 0.00 0.02 0.00 80 1017.2
20260502052605 41 44 0.0 0.0 0.00 0.02 0.00 80 1017.2
20260502052105 41 44 0.0 0.0 0.00 0.02 0.00 79 1017.2
20260502051605 41 44 0.0 0.0 0.00 0.02 0.00 79 1017.2
20260502051106 41 44 0.0 0.0 0.00 0.02 0.00 79 1017.1
20260502050606 41 47 0.0 0.0 0.00 0.02 0.00 78 1017.0
20260502045605 42 49 0.0 0.0 0.00 0.02 0.00 78 1016.9
20260502045105 42 49 0.0 0.0 0.00 0.02 0.00 78 1016.9
20260502044605 42 49 0.0 0.0 0.00 0.02 0.00 77 1016.8
20260502043605 42 47 0.0 0.0 0.00 0.02 0.00 77 1016.8
20260502042105 42 44 0.0 0.0 0.00 0.02 0.00 76 1016.6
20260502041606 42 63 0.0 0.0 0.00 0.02 0.00 77 1016.6
20260502041105 43 51 0.0 0.0 0.00 0.02 0.00 77 1016.6
20260502040105 43 59 0.0 0.0 0.00 0.02 0.00 78 1016.4
20260502035105 43 57 0.0 0.0 0.00 0.02 0.02 79 1016.2
20260502034605 43 57 0.0 0.0 0.00 0.02 0.02 79 1016.2
20260502034105 43 91 0.0 0.0 0.00 0.02 0.02 79 1016.2
20260502033605 43 96 0.0 0.0 0.00 0.02 0.02 80 1016.2
20260502033105 43 99 0.0 0.0 0.00 0.02 0.02 80 1016.1
20260502032606 44 96 0.0 0.0 0.00 0.02 0.02 80 1016.1
20260502031606 44 118 0.0 0.0 0.00 0.02 0.02 79 1016.1
20260502031105 44 112 0.0 0.0 0.00 0.02 0.02 80 1016.1
20260502030605 44 98 0.0 0.0 0.00 0.02 0.02 79 1016.1
20260502030106 44 107 0.0 0.0 0.00 0.02 0.02 79 1016.1
20260502025605 44 115 0.0 0.0 0.00 0.02 0.02 79 1016.0
20260502025105 44 98 0.0 0.0 0.00 0.02 0.02 79 1016.0